Location: Unspecified
(49.2170°N, 0.0000°E)
Time: 22:07:42
(UTC+00:00)

Transit 4A - Pass Details

Date: 17 June 2019
Orbit: 862 x 982 km, 66.8° (Epoch: 17 July)

Event Time Altitude Azimuth Distance (km) Brightness Sun altitude
Rises 13:37:01 0° 301° (WNW) 3,683 11.1 58.0°
Reaches altitude 10° 13:40:47 10° 322° (NW) 2,744 10.5 57.6°
Maximum altitude 13:44:36 16° 359° (N) 2,332 10.0 57.1°
Drops below altitude 10° 13:48:25 10° 36° (NE) 2,742 10.1 56.6°
Sets 13:52:10 0° 57° (ENE) 3,680 10.7 56.2°
